Location: Marsån
(66.4167°N, 22.2833°E)
Time: 10:14:30
(UTC+00:00)

Cosmos 1680 Rocket - Pass Details

Date: 24 February 2024
Orbit: 757 x 780 km, 74.1° (Epoch: 15 April)

Event Time Altitude Azimuth Distance (km) Brightness Sun altitude
Rises 17:37:01 0° 301° (WNW) 3,250 8.1 -13.9°
Reaches altitude 10° 17:39:31 10° 308° (NW) 2,326 7.0 -14.2°
Maximum altitude 17:44:33 43° 20° (NNE) 1,088 4.2 -14.7°
Enters shadow 17:47:41 21° 81° (E) 1,679 4.7 -15.0°
